• MPC Preparation (Info)

  • MPEC 1995-X01 : 1995 WL8

    The following Minor Planet Electronic Circular may be linked-to from your own Web pages, but must not otherwise be redistributed electronically.

    A form allowing access to any MPEC is at the bottom of this page.


    Read MPEC 1995-W11 Read MPEC 1995-X02


    M.P.E.C. 1995-X01                                Issued 1995 Dec. 2, 14:10 UT
    
         The Minor Planet Electronic Circulars contain information on unusual
             minor planets and routine data on comets.  They are published
       on behalf of Commission 20 of the International Astronomical Union by the
              Minor Planet Center, Smithsonian Astrophysical Observatory,
                              Cambridge, MA 02138, U.S.A.
    
                 BMARSDEN@CFA.HARVARD.EDU or GWILLIAMS@CFA.HARVARD.EDU
    
                                       1995 WL8
    
    Observations:
         J95W08L*  1995 11 29.00764 05 04 48.63 +21 39 41.2          16.5 V      010
         J95W08L   1995 11 29.01458 05 04 48.23 +21 39 25.3                      010
         J95W08L   1995 11 29.01806 05 04 47.94 +21 39 13.2                      010
         J95W08L   1995 11 29.02500 05 04 47.54 +21 38 58.8                      010
         J95W08L   1995 11 29.02847 05 04 47.29 +21 38 48.1                      010
         J95W08L   1995 11 29.03542 05 04 46.99 +21 38 36.1                      010
         J95W08L   1995 12 01.04167 05 02 56.12 +20 12 20.5                      010
         J95W08L   1995 12 01.04861 05 02 55.68 +20 12 04.9                      010
         J95W08L   1995 12 01.05208 05 02 55.48 +20 11 54.4                      010
         J95W08L   1995 12 01.05903 05 02 55.11 +20 11 40.0                      010
         J95W08L   1995 12 01.06250 05 02 54.84 +20 11 28.1                      010
         J95W08L   1995 12 01.06944 05 02 54.45 +20 11 13.5                      010
         J95W08L  C1995 12 02.20610 05 01 53.97 +19 24 01.6          17.5 V      709
         J95W08L  C1995 12 02.23972 05 01 51.94 +19 22 39.5          17.4 V      709
         J95W08L  C1995 12 02.26753 05 01 50.23 +19 21 31.4          17.5 V      709
         J95W08L  C1995 12 02.29738 05 01 48.40 +19 20 18.2          17.4 V      709
         J95W08L  C1995 12 02.32516 05 01 46.70 +19 19 10.0          17.5 V      709
         J95W08L  C1995 12 02.35987 05 01 44.58 +19 17 44.7          17.4 V      709
    
    Observer details:
    010 Caussols.  Observer D. Albanese.  Discovered and measured by C. Pollas
        in Uccle-OCA collaboration with E. Elst.  0.9-m Schmidt telescope.
    709 W & B Observatory, Cloudcroft.  Observer W. Offutt.  0.6-m f/7
        Ritchey-Chretien.
    
    Orbital elements:
    1995 WL8
    Epoch 1995 Nov. 19.0 TT = JDT 2450040.5                 Marsden
    M  14.01515              (2000.0)            P               Q
    n   0.27035601     Peri.  131.04963     +0.90940701     -0.30482422
    a   2.3687108      Node   248.44843     +0.22701968     +0.93384625
    e   0.4816638      Incl.   17.71121     +0.34848380     +0.18711861
    P   3.65           H    18.0          G   0.15
    From 15 observations 1995 Nov. 29-Dec. 2.
    
    Ephemeris:
    1995 WL8                 a,e,i = 2.37, 0.48, 18                  q = 1.2278
    Date    TT    R. A. (2000) Decl.     Delta      r     Elong.  Phase     V
    1995 11 29    05 04.82   +21 40.2    0.408    1.390   169.1     7.7    17.3
    1995 12 04    05 00.30   +18 12.1    0.430    1.414   173.7     4.4    17.3
    1995 12 09    04 56.21   +15 08.4    0.457    1.439   172.3     5.3    17.5
    1995 12 14    04 52.75   +12 31.4    0.489    1.465   167.1     8.6    17.9
    1995 12 19    04 50.08   +10 21.5    0.526    1.492   161.4    12.1    18.2
    1995 12 24    04 48.28   +08 37.2    0.568    1.520   155.9    15.3    18.5
    1995 12 29    04 47.42   +07 16.0    0.614    1.548   150.7    18.1    18.8
    1996 01 03    04 47.49   +06 15.1    0.664    1.577   145.7    20.6    19.1
    1996 01 08    04 48.43   +05 31.3    0.718    1.606   141.1    22.6    19.4
    1996 01 13    04 50.18   +05 01.8    0.775    1.636   136.7    24.4    19.6
    1996 01 18    04 52.69   +04 43.9    0.835    1.666   132.5    25.8    19.9
    1996 01 23    04 55.90   +04 35.4    0.898    1.696   128.5    27.0    20.1
    1996 01 28    04 59.75   +04 34.3    0.964    1.727   124.7    28.0    20.3
    1996 02 02    05 04.19   +04 38.8    1.033    1.757   121.1    28.7    20.6
    1996 02 07    05 09.13   +04 47.6    1.103    1.788   117.6    29.3    20.8
    1996 02 12    05 14.52   +04 59.4    1.176    1.819   114.2    29.7    20.9
    1996 02 17    05 20.32   +05 13.3    1.251    1.849   110.8    30.0    21.1
    
                           (Last issue was M.P.E.C. 1995-W11)
    
    Brian G. Marsden                                              M.P.E.C. 1995-X01
    

    Read MPEC 1995-W11 Read MPEC 1995-X02


    MPEC number:

    Enter an MPEC number in one of the following forms:

    • 1997-B01 (the full form)
    • J97B01 (the packed version of the full form)
    • B01 (the abbreviated form)